| time (UTC) | temp F | wind direction | speed MPH | gust MPH | rain 1hr in | rain 24hr in | rain mn in | humidity % | barometer mb |
| 20260905093105 | 76 | 0 | 0.0 | 0.0 | 0.00 | 0.00 | 0.00 | 59 | 1013.8 |
| 20260905091601 | 77 | 0 | 0.0 | 3.0 | 0.00 | 0.00 | 0.00 | 58 | 1013.9 |
| 20260905090059 | 78 | 146 | 3.0 | 5.0 | 0.00 | 0.00 | 0.00 | 56 | 1013.6 |
| 20260905084607 | 79 | 248 | 2.0 | 4.0 | 0.00 | 0.00 | 0.00 | 54 | 1013.9 |
| 20260905083056 | 78 | 0 | 0.0 | 1.0 | 0.00 | 0.00 | 0.00 | 56 | 1013.7 |
| 20260905081600 | 78 | 0 | 0.0 | 3.0 | 0.00 | 0.00 | 0.00 | 56 | 1013.8 |
| 20260905080122 | 78 | 213 | 0.0 | 4.0 | 0.00 | 0.00 | 0.00 | 57 | 1013.9 |
| 20260905074602 | 78 | 0 | 0.0 | 1.0 | 0.00 | 0.00 | 0.00 | 57 | 1014.1 |
| 20260905073102 | 79 | 0 | 2.0 | 5.0 | 0.00 | 0.00 | 0.00 | 55 | 1014.2 |
| 20260905071559 | 80 | 0 | 0.0 | 3.0 | 0.00 | 0.00 | 0.00 | 54 | 1014.2 |
| 20260905064605 | 82 | 266 | 5.0 | 7.0 | 0.00 | 0.00 | 0.00 | 51 | 1014.4 |
| 20260905063102 | 82 | 282 | 4.0 | 9.0 | 0.00 | 0.00 | 0.00 | 50 | 1014.3 |
| 20260905061604 | 83 | 218 | 3.0 | 5.0 | 0.00 | 0.00 | 0.00 | 49 | 1014.0 |
| 20260905060103 | 84 | 228 | 1.0 | 4.0 | 0.00 | 0.00 | 0.00 | 49 | 1014.2 |
| 20260905054559 | 84 | 257 | 0.0 | 3.0 | 0.00 | 0.00 | 0.00 | 49 | 1014.3 |
| 20260905053110 | 84 | 248 | 0.0 | 6.0 | 0.00 | 0.00 | 0.00 | 49 | 1014.3 |
| 20260905051559 | 83 | 269 | 3.0 | 5.0 | 0.00 | 0.00 | 0.00 | 50 | 1014.4 |
| 20260905050106 | 84 | 166 | 3.0 | 7.0 | 0.00 | 0.00 | 0.00 | 50 | 1014.3 |
| 20260905044557 | 84 | 172 | 3.0 | 10.0 | 0.00 | 0.00 | 0.00 | 48 | 1014.3 |
| 20260905043105 | 85 | 159 | 5.0 | 13.0 | 0.00 | 0.00 | 0.00 | 47 | 1014.0 |
| 20260905041604 | 85 | 161 | 7.0 | 19.0 | 0.00 | 0.00 | 0.00 | 45 | 1013.9 |
| 20260905040106 | 86 | 160 | 13.0 | 21.0 | 0.00 | 0.00 | 0.00 | 44 | 1013.8 |
| 20260905034611 | 87 | 147 | 14.0 | 18.0 | 0.00 | 0.00 | 0.00 | 43 | 1013.7 |
| 20260905033118 | 87 | 139 | 14.0 | 23.0 | 0.00 | 0.00 | 0.00 | 42 | 1013.6 |
| 20260905031614 | 87 | 97 | 3.0 | 7.0 | 0.00 | 0.00 | 0.00 | 42 | 1013.6 |
| 20260905030105 | 87 | 0 | 0.0 | 6.0 | 0.00 | 0.00 | 0.00 | 41 | 1013.3 |
| 20260905024601 | 88 | 146 | 3.0 | 7.0 | 0.00 | 0.00 | 0.00 | 40 | 1013.1 |
| 20260905023127 | 89 | 222 | 4.0 | 7.0 | 0.00 | 0.00 | 0.00 | 39 | 1012.7 |
| 20260905021602 | 89 | 240 | 4.0 | 8.0 | 0.00 | 0.00 | 0.00 | 39 | 1012.5 |
| 20260905014601 | 90 | 253 | 5.0 | 9.0 | 0.00 | 0.00 | 0.00 | 37 | 1012.0 |
| 20260905013100 | 91 | 255 | 5.0 | 8.0 | 0.00 | 0.00 | 0.00 | 35 | 1011.8 |
| 20260905011602 | 92 | 247 | 5.0 | 9.0 | 0.00 | 0.00 | 0.00 | 34 | 1011.9 |
| 20260905010109 | 93 | 246 | 6.0 | 9.0 | 0.00 | 0.00 | 0.00 | 32 | 1011.9 |
| 20260905004630 | 93 | 0 | 3.0 | 8.0 | 0.00 | 0.00 | 0.00 | 33 | 1012.0 |
| 20260905003106 | 94 | 267 | 6.0 | 11.0 | 0.00 | 0.00 | 0.00 | 31 | 1011.8 |
| 20260905001602 | 94 | 238 | 6.0 | 12.0 | 0.00 | 0.00 | 0.00 | 31 | 1011.7 |
| 20260905000132 | 94 | 271 | 8.0 | 12.0 | 0.00 | 0.00 | 0.00 | 30 | 1011.4 |
| 20260904234600 | 95 | 254 | 9.0 | 15.0 | 0.00 | 0.00 | 0.00 | 30 | 1011.4 |
| 20260904233101 | 95 | 263 | 10.0 | 15.0 | 0.00 | 0.00 | 0.00 | 30 | 1011.5 |
| 20260904231559 | 97 | 280 | 12.0 | 17.0 | 0.00 | 0.00 | 0.00 | 27 | 1011.4 |
| 20260904230109 | 97 | 264 | 12.0 | 16.0 | 0.00 | 0.00 | 0.00 | 27 | 1011.2 |
| 20260904224600 | 96 | 266 | 11.0 | 17.0 | 0.00 | 0.00 | 0.00 | 30 | 1011.1 |
| 20260904223058 | 95 | 259 | 14.0 | 21.0 | 0.00 | 0.00 | 0.00 | 31 | 1011.1 |
| 20260904221605 | 96 | 267 | 16.0 | 22.0 | 0.00 | 0.00 | 0.00 | 32 | 1011.2 |
| 20260904220107 | 97 | 277 | 13.0 | 22.0 | 0.00 | 0.00 | 0.00 | 32 | 1011.4 |
| 20260904214602 | 99 | 240 | 1.0 | 6.0 | 0.00 | 0.00 | 0.00 | 27 | 1011.6 |
| 20260904213102 | 98 | 0 | 0.0 | 0.0 | 0.00 | 0.00 | 0.00 | 27 | 1011.8 |
| 20260904211604 | 96 | 0 | 0.0 | 4.0 | 0.00 | 0.00 | 0.00 | 29 | 1012.0 |
| 20260904204602 | 99 | 0 | 3.0 | 10.0 | 0.00 | 0.00 | 0.00 | 26 | 1011.8 |
| 20260904203105 | 99 | 0 | 0.0 | 1.0 | 0.00 | 0.00 | 0.00 | 26 | 1012.5 |
| 20260904201624 | 100 | 0 | 3.0 | 10.0 | 0.00 | 0.00 | 0.00 | 28 | 1012.9 |
| 20260904200101 | 99 | 0 | 2.0 | 9.0 | 0.00 | 0.00 | 0.00 | 29 | 1013.1 |
| 20260904194559 | 99 | 112 | 2.0 | 4.0 | 0.00 | 0.00 | 0.00 | 32 | 1013.2 |
| 20260904193100 | 98 | 204 | 2.0 | 7.0 | 0.00 | 0.00 | 0.00 | 29 | 1013.5 |
| 20260904191600 | 97 | 123 | 1.0 | 8.0 | 0.00 | 0.00 | 0.00 | 31 | 1013.5 |
| 20260904184602 | 96 | 0 | 5.0 | 10.0 | 0.00 | 0.00 | 0.00 | 31 | 1013.8 |
| 20260904183117 | 96 | 242 | 2.0 | 7.0 | 0.00 | 0.00 | 0.00 | 33 | 1014.1 |
| 20260904181603 | 95 | 28 | 0.0 | 6.0 | 0.00 | 0.00 | 0.00 | 35 | 1014.4 |
| 20260904180104 | 95 | 57 | 2.0 | 9.0 | 0.00 | 0.00 | 0.00 | 34 | 1014.9 |
| 20260904174605 | 95 | 340 | 2.0 | 9.0 | 0.00 | 0.00 | 0.00 | 36 | 1015.1 |
| 20260904173103 | 94 | 348 | 3.0 | 9.0 | 0.00 | 0.00 | 0.00 | 34 | 1015.1 |
| 20260904171617 | 93 | 297 | 3.0 | 9.0 | 0.00 | 0.00 | 0.00 | 34 | 1015.3 |
| 20260904170105 | 93 | 314 | 3.0 | 10.0 | 0.00 | 0.00 | 0.00 | 37 | 1015.4 |
| 20260904164626 | 92 | 317 | 8.0 | 14.0 | 0.00 | 0.00 | 0.00 | 37 | 1015.6 |
| 20260904163101 | 91 | 309 | 4.0 | 13.0 | 0.00 | 0.00 | 0.00 | 39 | 1015.3 |
| 20260904161555 | 90 | 273 | 7.0 | 12.0 | 0.00 | 0.00 | 0.00 | 38 | 1015.2 |
| 20260904154601 | 89 | 284 | 10.0 | 14.0 | 0.00 | 0.00 | 0.00 | 41 | 1015.4 |
| 20260904153111 | 88 | 304 | 10.0 | 15.0 | 0.00 | 0.00 | 0.00 | 41 | 1015.2 |
| 20260904151601 | 88 | 296 | 9.0 | 16.0 | 0.00 | 0.00 | 0.00 | 42 | 1015.3 |
| 20260904144603 | 86 | 296 | 8.0 | 13.0 | 0.00 | 0.00 | 0.00 | 45 | 1015.6 |
| 20260904143106 | 85 | 287 | 3.0 | 6.0 | 0.00 | 0.00 | 0.00 | 46 | 1015.6 |
| 20260904141606 | 83 | 294 | 2.0 | 6.0 | 0.00 | 0.00 | 0.00 | 50 | 1015.7 |
| 20260904140103 | 81 | 282 | 3.0 | 5.0 | 0.00 | 0.00 | 0.00 | 53 | 1015.5 |
| 20260904134602 | 80 | 289 | 3.0 | 5.0 | 0.00 | 0.00 | 0.00 | 55 | 1015.3 |
| 20260904133058 | 80 | 307 | 0.0 | 4.0 | 0.00 | 0.00 | 0.00 | 56 | 1015.3 |
| 20260904131608 | 80 | 274 | 3.0 | 8.0 | 0.00 | 0.00 | 0.00 | 53 | 1014.9 |
| 20260904130100 | 79 | 271 | 4.0 | 8.0 | 0.00 | 0.00 | 0.00 | 54 | 1014.6 |
| 20260904124559 | 79 | 248 | 5.0 | 9.0 | 0.00 | 0.00 | 0.00 | 53 | 1014.6 |
| 20260904123105 | 79 | 266 | 7.0 | 11.0 | 0.00 | 0.00 | 0.00 | 52 | 1014.2 |
| 20260904121605 | 80 | 266 | 7.0 | 12.0 | 0.00 | 0.00 | 0.00 | 52 | 1014.1 |
| 20260904120103 | 80 | 247 | 10.0 | 15.0 | 0.00 | 0.00 | 0.00 | 51 | 1014.0 |
| 20260904114606 | 80 | 250 | 9.0 | 15.0 | 0.00 | 0.00 | 0.00 | 51 | 1014.0 |
| 20260904113053 | 80 | 248 | 9.0 | 15.0 | 0.00 | 0.00 | 0.00 | 51 | 1014.0 |
| 20260904111601 | 79 | 259 | 6.0 | 9.0 | 0.00 | 0.00 | 0.00 | 52 | 1014.0 |
| 20260904104559 | 78 | 269 | 3.0 | 7.0 | 0.00 | 0.00 | 0.00 | 56 | 1013.9 |
| 20260904103100 | 78 | 248 | 6.0 | 8.0 | 0.00 | 0.00 | 0.00 | 53 | 1013.7 |
| 20260904101610 | 77 | 257 | 4.0 | 7.0 | 0.00 | 0.00 | 0.00 | 56 | 1013.9 |
| 20260904100107 | 77 | 236 | 3.0 | 4.0 | 0.00 | 0.00 | 0.00 | 55 | 1013.7 |
| 20260904094610 | 78 | 246 | 2.0 | 5.0 | 0.00 | 0.00 | 0.00 | 55 | 1013.5 |